Location: Demmingen
(48.6757°N, 10.4375°E)
Time: 04:57:53
(UTC+00:00)

SL-16 R/B - Pass Details

Date: 15 August 2024
Orbit: 842 x 845 km, 71.0° (Epoch: 16 September)

Event Time Altitude Azimuth Distance (km) Brightness Sun altitude
Exits shadow 21:48:50 38° 93° (E) 1,265 2.8 -24.3°
Drops below altitude 10° 21:53:28 10° 41° (NE) 2,474 4.9 -24.6°
Sets 21:56:03 0° 34° (NNE) 3,414 5.8 -24.8°
